Track STARLINK-4023 now! 10-day predictions STARLINK-4023 is classified as:
1 53135U 22083D 22224.58334491 -.01116250 00000-0 -12076-1 0 9996 2 53135 53.2174 278.2682 0001385 47.0559 53.5881 15.65453335 4748